Home   Weather   Overland Park   Past weeks

Flag for USA Past Weather in Overland Park, Kansas, USA — Yesterday and Last 2 Weeks

Now
77 °F

Overcast.


Feels Like: 79 °F
Forecast: 60 / 74 °F
Wind: No wind

Location: Johnson County Executive Airport

Current Time: Sep 24, 2016 at 10:54:21 PM

Latest Report: Sep 24, 2016 at 9:53 PM


Visibility: 10 mi

Pressure: 29.96 "Hg

Humidity: 79%

Dew Point: 70 °F

Location of Overland ParkLocation

Past Weather in Overland Park — Graph

°F

Overland Park Temperature Yesterday

Maximum temperature yesterday: 85 °F (at 1:53 PM)
Minimum temperature yesterday: 65 °F (at 6:53 AM)
Average temperature yesterday: 75 °F

High & Low Weather Summary for the Past Weeks

 TemperatureHumidityPressure
High89 °F (Sep 20, 1:53 PM)100% (Sep 10, 12:53 AM)30.24 "Hg (Sep 10, 12:53 AM)
Low53 °F (Sep 11, 5:53 AM)40% (Sep 10, 4:53 PM)29.81 "Hg (Sep 9, 8:53 PM)
Average72 °F78%30.02 "Hg
* Reported Sep 9 8:03 PM — Sep 24 8:53 PM, Overland Park, Weather by CustomWeather, © 2016

Note: Actual official high and low records may vary slightly from our data, if they occured in-between our weather recording intervals... More about our weather records

Advertising

Overland Park Weather History for the Previous 24 Hours

Scroll right to see more
 ConditionsComfort  
Time TempWeatherWind HumidityBarometerVisibility
8:53 PM
Sat, Sep 24
77 °FClear.5 mph79%29.95 "Hg10 mi
7:53 PM79 °FClear.5 mph72%29.93 "Hg10 mi
6:53 PM80 °FScattered clouds.5 mph69%29.92 "Hg10 mi
5:53 PM84 °FSunny.15 mph59%29.90 "Hg10 mi
4:53 PM86 °FSunny.15 mph55%29.90 "Hg10 mi
3:53 PM86 °FPassing clouds.14 mph59%29.91 "Hg10 mi
2:53 PM85 °FScattered clouds.20 mph61%29.92 "Hg10 mi
1:53 PM86 °FPassing clouds.15 mph61%29.96 "Hg10 mi
12:53 PM83 °FPassing clouds.12 mph65%29.99 "Hg10 mi
11:53 AM81 °FOvercast.16 mph72%30.01 "Hg10 mi
10:53 AM79 °FOvercast.10 mph74%30.01 "Hg10 mi
9:53 AM77 °FPartly sunny.12 mph79%30.01 "Hg10 mi
8:53 AM73 °FSunny.9 mph84%30.01 "Hg10 mi
7:53 AM68 °FPartly sunny.6 mph90%30.01 "Hg9 mi
6:53 AM67 °FClear.5 mph90%30.00 "Hg10 mi
5:53 AM67 °FClear.3 mph90%29.99 "Hg10 mi
4:53 AM68 °FClear.6 mph87%29.98 "Hg10 mi
3:53 AM69 °FClear.6 mph84%29.98 "Hg10 mi
2:53 AM70 °FClear.7 mph81%29.98 "Hg10 mi
1:53 AM70 °FClear.7 mph81%29.98 "Hg10 mi
12:53 AM71 °FClear.7 mph78%29.98 "Hg10 mi
11:53 PM
Fri, Sep 23
71 °FClear.6 mph78%29.98 "Hg10 mi
10:53 PM72 °FClear.6 mph76%29.98 "Hg10 mi
Weather by CustomWeather, © 2016

See weather overviewHow to use our weather pages